Date String (YYYY-MM-DD hh:mm:ss) UTC,Instrument flags,Ambient pressure (hPa),Sample flow (lpm),Bypass flow (lpm),Sample temperature (°C),Ambient temperature (°C),ASC tube jacket temperature (°C),LED temperature (°C),Box temperature (°C),Sample RH (%),Span deviation,Mass concentration (μg/m³),Mass concentration (μg/m³),Mass concentration (μg/m³)
DateTimeUTC,F1_M11,P_M11,Q1_M11,Q2_M11,T1_M11,T2_M11,T3_M11,T4_M11,T5_M11,U1_M11,ZSPAN_M11,X2_M11,X0_M11,X1_M11
2022-10-27 17:00:00,,0825.2,5.01,0.00,24.9,23.4,00.0,33.7,26.8,19.2,0000.0,0001.33,0001.91,0001.11
2022-10-27 17:01:00,,0825.2,5.01,0.00,24.9,23.4,00.0,33.7,26.8,18.7,0000.0,0001.34,0002.85,0001.11
2022-10-27 17:02:00,,0825.2,5.01,0.00,24.9,23.4,00.0,33.7,26.8,18.7,0000.0,0001.33,0002.93,0001.11
2022-10-27 17:03:00,,0825.2,5.00,0.00,24.9,23.4,00.0,33.7,26.8,18.9,0000.0,0001.36,0002.99,0001.12
2022-10-27 17:04:00,,0825.3,4.99,0.00,24.9,23.4,00.0,33.7,26.8,18.9,0000.0,0001.38,0003.01,0001.13
2022-10-27 17:05:00,,0825.3,4.99,0.00,24.9,23.4,00.0,33.7,26.8,19.2,0000.0,0001.36,0002.93,0001.13
2022-10-27 17:06:00,,0825.4,5.00,0.00,24.9,23.4,00.0,33.7,26.8,19.4,0000.0,0001.38,0002.95,0001.15
2022-10-27 17:07:00,,0825.3,5.00,0.00,24.9,23.4,00.0,33.7,26.8,19.5,0000.0,0001.40,0002.95,0001.16
2022-10-27 17:08:00,,0825.3,5.00,0.00,24.9,23.4,00.0,33.7,26.8,19.0,0000.0,0001.40,0002.98,0001.17
2022-10-27 17:09:00,,0825.3,5.00,0.00,24.9,23.4,00.0,33.7,26.8,19.5,0000.0,0001.48,0003.10,0001.22
2022-10-27 17:10:00,,0825.3,5.00,0.00,24.9,23.3,00.0,33.7,26.8,20.3,0000.0,0001.65,0003.44,0001.33
2022-10-27 17:11:00,,0825.3,5.00,0.00,24.9,23.3,00.0,33.7,26.8,20.7,0000.0,0001.77,0003.61,0001.43
2022-10-27 17:12:00,,0825.4,5.01,0.00,24.9,23.3,00.0,33.7,26.8,21.0,0000.0,0001.88,0002.76,0001.53
2022-10-27 17:13:00,,0825.4,5.00,0.00,24.9,23.3,00.0,33.7,26.7,20.8,0000.0,0002.01,0002.92,0001.63
2022-10-27 17:14:00,,0825.4,5.00,0.00,24.9,23.3,00.0,33.7,26.7,20.7,0000.0,0002.10,0003.06,0001.70
2022-10-27 17:15:00,,0825.3,4.99,0.00,24.9,23.3,00.0,33.7,26.7,20.6,0000.0,0002.19,0003.20,0001.78
2022-10-27 17:16:00,,0825.3,4.99,0.00,24.9,23.3,00.0,33.7,26.7,20.8,0000.0,0002.30,0003.73,0001.87
2022-10-27 17:17:00,,0825.4,5.00,0.00,24.8,23.3,00.0,33.7,26.7,21.2,0000.0,0002.38,0004.32,0001.95
2022-10-27 17:18:00,,0825.3,5.00,0.00,24.8,23.3,00.0,33.7,26.7,21.1,0000.0,0002.47,0004.42,0002.04
2022-10-27 17:19:00,,0825.4,5.00,0.00,24.8,23.3,00.0,33.6,26.7,21.3,0000.0,0002.56,0004.51,0002.12
2022-10-27 17:20:00,,0825.4,5.01,0.00,24.8,23.3,00.0,33.6,26.7,21.3,0000.0,0002.59,0004.66,0002.16
2022-10-27 17:21:00,,0825.4,5.00,0.00,24.8,23.3,00.0,33.6,26.7,21.0,0000.0,0002.53,0004.54,0002.12
2022-10-27 17:22:00,,0825.4,5.00,0.00,24.8,23.2,00.0,33.7,26.7,21.0,0000.0,0002.53,0004.58,0002.09
2022-10-27 17:23:00,,0825.4,5.00,0.00,24.8,23.1,00.0,33.6,26.7,20.6,0000.0,0002.52,0004.55,0002.08
2022-10-27 17:24:00,,0825.4,5.00,0.00,24.8,23.0,00.0,33.6,26.6,20.5,0000.0,0002.49,0004.62,0002.07
2022-10-27 17:25:00,,0825.4,5.00,0.00,24.8,23.0,00.0,33.6,26.6,20.5,0000.0,0002.47,0004.55,0002.06
2022-10-27 17:26:00,,0825.4,4.99,0.00,24.7,22.9,00.0,33.6,26.5,20.5,0000.0,0002.46,0004.55,0002.05
2022-10-27 17:27:00,,0825.4,5.00,0.00,24.7,22.8,00.0,33.6,26.5,20.4,0000.0,0002.47,0004.17,0002.04
2022-10-27 17:28:00,,0825.4,5.00,0.00,24.7,22.7,00.0,33.6,26.5,20.4,0000.0,0002.45,0003.72,0002.02
2022-10-27 17:29:00,,0825.4,5.01,0.00,24.6,22.7,00.0,33.5,26.4,20.4,0000.0,0002.44,0003.73,0002.00
2022-10-27 17:30:00,,0825.4,5.01,0.00,24.6,22.7,00.0,33.5,26.4,20.8,0000.0,0002.41,0003.67,0001.98
2022-10-27 17:31:00,,0825.4,4.99,0.00,24.6,22.7,00.0,33.5,26.4,20.9,0000.0,0002.38,0003.47,0001.96
2022-10-27 17:32:00,,0825.4,5.00,0.00,24.5,22.7,00.0,33.5,26.3,21.2,0000.0,0002.33,0003.31,0001.97
2022-10-27 17:33:00,,0825.4,5.00,0.00,24.5,22.7,00.0,33.4,26.3,21.3,0000.0,0002.30,0003.23,0001.97
2022-10-27 17:34:00,,0825.4,5.00,0.00,24.5,22.6,00.0,33.4,26.3,21.3,0000.0,0002.30,0003.25,0001.96
2022-10-27 17:35:00,,0825.4,5.01,0.00,24.4,22.6,00.0,33.4,26.2,20.9,0000.0,0002.31,0003.22,0001.94
2022-10-27 17:36:00,,0825.4,5.00,0.00,24.4,22.5,00.0,33.4,26.2,20.4,0000.0,0002.28,0003.15,0001.92
2022-10-27 17:37:00,,0825.4,5.02,0.00,24.4,22.4,00.0,33.4,26.1,20.3,0000.0,0002.28,0003.15,0001.91
2022-10-27 17:38:00,,0825.4,4.99,0.00,24.4,22.3,00.0,33.3,26.1,20.5,0000.0,0002.24,0003.07,0001.90
2022-10-27 17:39:00,,0825.4,4.99,0.00,24.3,22.3,00.0,33.3,26.1,21.0,0000.0,0002.24,0003.06,0001.90
2022-10-27 17:40:00,,0825.4,5.01,0.00,24.3,22.2,00.0,33.3,26.0,20.6,0000.0,0002.20,0003.00,0001.88
2022-10-27 17:41:00,,0825.5,5.00,0.00,24.3,22.3,00.0,33.2,26.0,20.6,0000.0,0002.20,0003.04,0001.88
2022-10-27 17:42:00,,0825.5,4.99,0.00,24.2,22.2,00.0,33.2,25.9,20.6,0000.0,0002.19,0003.01,0001.89
2022-10-27 17:43:00,,0825.4,4.99,0.00,24.2,22.2,00.0,33.2,25.9,20.8,0000.0,0002.19,0003.03,0001.87
2022-10-27 17:44:00,,0825.4,5.00,0.00,24.2,22.2,00.0,33.2,25.9,20.9,0000.0,0002.14,0002.93,0001.84
2022-10-27 17:45:00,,0825.5,4.99,0.00,24.1,22.1,00.0,33.1,25.9,21.0,0000.0,0002.15,0002.95,0001.83
2022-10-27 17:46:00,,0825.5,5.01,0.00,24.1,22.1,00.0,33.1,25.8,20.9,0000.0,0002.17,0002.98,0001.83
2022-10-27 17:47:00,,0825.5,5.01,0.00,24.1,22.0,00.0,33.1,25.7,20.8,0000.0,0002.18,0003.03,0001.82
2022-10-27 17:48:00,,0825.5,5.00,0.00,24.0,22.0,00.0,33.1,25.7,20.8,0000.0,0002.17,0003.01,0001.82
2022-10-27 17:49:00,,0825.5,5.00,0.00,24.0,21.9,00.0,33.0,25.6,21.3,0000.0,0002.12,0003.52,0001.80
2022-10-27 17:50:00,,0825.5,5.00,0.00,24.0,21.9,00.0,33.0,25.6,21.4,0000.0,0002.13,0003.97,0001.80
2022-10-27 17:51:00,,0825.5,5.00,0.00,23.9,21.9,00.0,33.0,25.6,21.2,0000.0,0002.12,0003.95,0001.79
2022-10-27 17:52:00,,0825.5,5.00,0.00,23.9,21.9,00.0,32.9,25.6,20.7,0000.0,0002.10,0003.89,0001.78
2022-10-27 17:53:00,,0825.6,5.00,0.00,23.9,22.1,00.0,32.9,25.7,20.4,0000.0,0002.10,0003.92,0001.75
2022-10-27 17:54:00,,0825.6,5.00,0.00,23.9,22.2,00.0,32.9,25.7,20.6,0000.0,0002.09,0004.02,0001.75
2022-10-27 17:55:00,,0825.6,5.00,0.00,23.9,22.2,00.0,32.9,25.7,21.0,0000.0,0002.12,0005.06,0001.76
2022-10-27 17:56:00,,0825.6,5.01,0.00,23.9,22.2,00.0,32.9,25.7,21.1,0000.0,0002.12,0005.17,0001.76
2022-10-27 17:57:00,,0825.6,5.00,0.00,23.9,22.2,00.0,32.8,25.7,20.9,0000.0,0002.06,0005.12,0001.77
2022-10-27 17:58:00,,0825.6,5.00,0.00,23.9,22.2,00.0,32.8,25.6,21.1,0000.0,0002.03,0005.04,0001.77
2022-10-27 17:59:00,,0825.6,5.00,0.00,23.9,22.2,00.0,32.8,25.6,21.7,0000.0,0002.02,0005.01,0001.77
